Regional Weather Roundup
Issued by NWS State College, PA

Home | Current Version | Previous Version | Graphics & Text | Print | Product List | Glossary Off
Versions: 1 2 3 4 5 6 7 8 9 10 11 12 13 14 15 16 17 18 19 20 21 22 23 24 25 26 27 28 29 30 31 32 33 34 35 36 37 38 39 40 41 42 43 44 45 46 47 48 49 50

000
ASUS41 KCTP 040710
RWRCTP

REGIONAL WEATHER ROUNDUP
NATIONAL WEATHER SERVICE STATE COLLEGE PA
300 AM EDT FRI SEP 04 2015

Note: "fair" indicates few or no clouds below 12,000 feet with no
significant weather and/or obstructions to visibility.

* = STATION THAT DOES NOT REPORT PRECIPITATION /E.G. RAIN...SNOW...ETC/
    THUNDER OR FOG.

PAZ002>004-007>009-013>016-020>023-029>032-040800-
WESTERN PENNSYLVANIA

CITY           SKY/WX    TMP DP  RH WIND       PRES   REMARKS
ERIE           CLOUDY    71  67  87 S5        29.99S FOG
MEADVILLE      PTCLDY    68  65  90 W3        30.02F FOG
FRANKLIN*      CLEAR     64  63  94 W3        30.04R
NEW CASTLE     FAIR      69  69 100 CALM      30.02F
BEAVER COUNTY  NOT AVBL
BUTLER*        PTCLDY    66  63  88 W6        30.03R
PITTSBURGH INT MOCLDY    69  65  86 W8        30.01R
PITTSBURGH     PTCLDY    69  64  84 SW6       30.00S
INDIANA*       CLEAR     68  66  94 CALM      30.04S FOG
LATROBE        NOT AVBL
WASHINGTON CO* PTCLDY    66  64  94 CALM      30.02S
$$

PAZ004>006-010>012-017>019-024>028-033>037-041-042-045-046-049>053-040800-
CENTRAL PENNSYLVANIA

CITY           SKY/WX    TMP DP  RH WIND       PRES   REMARKS
BRADFORD       FOG       61  60  97 CALM      30.05S VSB 1/4
DUBOIS         PTCLDY    64  61  90 E7        30.02F FOG
CLEARFIELD     PTCLDY    64  61  90 N3        30.02F
JOHNSTOWN      CLEAR     67  64  90 CALM      30.04F FOG
ALTOONA        CLEAR     66  64  93 E3        30.01F FOG
STATE COLLEGE  PTCLDY    66  64  95 CALM      30.00S
WILLIAMSPORT   CLEAR     69  66  90 SW3       29.96F
SELINSGROVE    PTCLDY    67  65  93 CALM      29.96S FOG
FT INDIANTOWN  PTCLDY    74  66  77 N5        29.94R
CAPITAL CITY   PTCLDY    72  67  84 W5        29.93S
HARRISBURG     MOCLDY    76  68  76 N3        29.92S
YORK           PTCLDY    66  65  96 CALM      29.93S FOG
$$

PAZ038>040-043-044-047-048-054-055-060>062-067>071-040800-
EASTERN PENNSYLVANIA

CITY           SKY/WX    TMP DP  RH WIND       PRES   REMARKS
SCRANTON       CLEAR     69  65  86 E6        29.98S
MOUNT POCONO   CLEAR     65  63  93 CALM      30.02S FOG
ALLENTOWN      PTCLDY    71  66  84 CALM      29.94S
QUAKERTOWN*    MOSUNNY   72  68  88 N3        29.94S
READING        PTCLDY    71  67  87 NW3       29.92S
LANCASTER      PTCLDY    73  66  78 CALM      29.93R
COATESVILLE    PTSUNNY   73  68  83 N3        29.94S
POTTSTOWN      PTCLDY    70  68  93 CALM      29.94S
BLUE BELL      PTCLDY    72  70  94 CALM      29.91R
DOYLESTOWN     PTCLDY    71  67  87 NE3       29.92S
WILLOW GROVE   NOT AVBL
NORTH PHILA    MOCLDY    77  67  71 N3        29.92R
PHILADELPHIA   CLOUDY    78  70  76 CALM      29.90S
$$


USA.gov is the U.S. government's official web portal to all federal, state and local government web resources and services.